Home   Weather   Provincetown   Past weeks

Flag for USA Past Weather in Provincetown, Massachusetts, USA — Yesterday and Last 2 Weeks

Now
39 °F

Overcast.


Feels Like: 32 °F
Forecast: 37 / 39 °F
Wind: 13 mph from East

Location: Provincetown Weather Reporting Station

Current Time: Jan 18, 2017 at 5:28:39 pm

Latest Report: Jan 18, 2017 at 4:28 pm


Visibility: 8 mi

Pressure: 29.97 "Hg

Humidity: 93%

Dew Point: 37 °F

Location of ProvincetownLocation

Past Weather in Provincetown — Graph

°F

Provincetown Temperature Yesterday

Maximum temperature yesterday: 46 °F (at 11:56 am)
Minimum temperature yesterday: 35 °F (at 6:56 am)
Average temperature yesterday: 40 °F

High & Low Weather Summary for the Past Weeks

 TemperatureHumidityPressure
High52 °F (Jan 12, 10:26 am)100% (Jan 3, 10:37 pm)30.70 "Hg (Jan 3, 10:37 pm)
Low15 °F (Jan 10, 1:56 am)39% (Jan 13, 5:56 pm)29.31 "Hg (Jan 4, 2:56 am)
Average35 °F76%30.15 "Hg
* Reported Jan 3 3:08 pm — Jan 18 3:58 pm, Provincetown, Weather by CustomWeather, © 2017

Note: Actual official high and low records may vary slightly from our data, if they occured in-between our weather recording intervals... More about our weather records

Advertising

Provincetown Weather History for the Previous 24 Hours

Scroll right to see more
 ConditionsComfort  
Time TempWeatherWind HumidityBarometerVisibility
3:58 pm
Wed, Jan 18
39 °FFog.14 mph100%29.96 "Hg4 mi
3:37 pm39 °FFog.15 mph100%29.97 "Hg6 mi
2:56 pm40 °FLight rain. Fog.13 mph97%29.96 "Hg6 mi
1:56 pm40 °FFog.14 mph97%29.93 "Hg3 mi
12:56 pm40 °FLight rain. Fog.18 mph97%29.92 "Hg2 mi
12:13 pm39 °FFog.13 mph100%29.92 "Hg3 mi
11:56 am40 °FFog.17 mph97%29.92 "Hg2 mi
10:56 am40 °FFog.16 mph97%29.95 "Hg4 mi
9:56 am40 °FFog.16 mph97%29.97 "Hg3 mi
9:14 am39 °FFog.12 mph100%29.98 "Hg2 mi
8:56 am40 °FFog.9 mph93%29.98 "Hg5 mi
8:23 am39 °FFog.13 mph93%29.97 "Hg5 mi
7:56 am39 °FLight rain. Fog.10 mph93%29.97 "Hg4 mi
7:11 am39 °FLight rain. Overcast.13 mph93%29.98 "Hg10 mi
6:56 am38 °FLight rain. Low clouds.13 mph97%29.98 "Hg10 mi
5:56 am38 °FLight rain. Mostly cloudy.14 mph97%29.98 "Hg7 mi
4:56 am38 °FFog.13 mph93%29.99 "Hg6 mi
4:10 am37 °FLight rain. Overcast.15 mph93%29.99 "Hg10 mi
3:58 am37 °FLight rain. Mostly cloudy.14 mph93%30.00 "Hg10 mi
2:56 am38 °FLight rain. Low clouds.12 mph97%30.02 "Hg10 mi
2:19 am37 °FLight rain. Overcast.10 mph100%30.04 "Hg10 mi
1:56 am38 °FLight rain. Low clouds.15 mph97%30.05 "Hg10 mi
12:56 am38 °FLight rain. Fog.13 mph97%30.07 "Hg6 mi
12:38 am37 °FLight rain. Fog.9 mph93%30.08 "Hg4 mi
12:09 am37 °FLight rain. Fog.10 mph93%30.08 "Hg6 mi
11:21 pm
Tue, Jan 17
37 °FMostly cloudy.13 mph93%30.09 "Hg10 mi
10:56 pm38 °FLight rain. Mostly cloudy.15 mph93%30.11 "Hg10 mi
9:56 pm38 °FLight rain. Fog.9 mph93%30.14 "Hg6 mi
8:56 pm39 °FLight rain. Mostly cloudy.10 mph89%30.16 "Hg7 mi
7:56 pm39 °FLight rain. Mostly cloudy.12 mph86%30.17 "Hg10 mi
6:56 pm40 °FLight rain. Passing clouds.12 mph83%30.18 "Hg10 mi
5:56 pm41 °FPassing clouds.13 mph74%30.19 "Hg10 mi
Weather by CustomWeather, © 2017

See weather overviewHow to use our weather pages